Race Coverage Navigation

TS # 50 / Rouzerville, PA  2019

 


TS STATS
TS Distance 48.5 
Total Distance 2910.14 
Miles To Go 131.53 
TS Climbing 2888 
Total Climbing
TS  Elevation
TS  Net Elevation 4599 
Map Filename Open Map 
Directions Filename  
Latitude 39.74 
Longitude -77.52 
Google Map  TimeStation Map 


TS Arrival Data
Arr Ord  #/Name Arrival DT TS Dst Avg This TS Avg Overall
 1 377 - Christoph Strasser  06/19/2019 16:08 48.5  11.88  15.2 
 2 279 - Marko Baloh  06/20/2019 23:12 48.5  10.62  13.08 
 3 T411 - team alpha - tischlerei groemmer  06/21/2019 0:45 48.5  20.07  22.49 
 4 T800 - Backstedt Racing Project 14  06/21/2019 1:28 48.5  20.49  22.39 
 5 609 - Jakob Olsen  06/21/2019 2:01 48.5  9.64  12.9 
 6 T404 - Gentlemen of speed  06/21/2019 10:26 48.5  16.92  20.91 
 7 T401 - Data Techniques powered by Networks Centre  06/21/2019 14:31 48.5  18.77  20.3 
 8 T805 - Team Oceanside  06/21/2019 15:02 48.5  22.73  20.28 
 9 T807 - Team ZOE International  06/21/2019 15:34 48.5  19.53  20.21 
 10 T407 - Julian Becker   06/21/2019 17:35 48.5  18.65  19.89 
 11 T201 - EAT WELL  06/21/2019 18:38 48.5  18.3  19.71 
 12 T802 - Scorchers  06/21/2019 19:23 48.5  14.55  19.68 
 13 617 - SOLO.kiwi (Craig Harper)  06/21/2019 20:56 48.5  12.82  11.89 
 14 T804 - Team FSHD Skyland Trail  06/21/2019 21:36 48.5  17.32  19.39 
 15 367 - Daniela Genovesi  06/21/2019 21:38 48.5  12.71  11.85 
 16 T408 - Radeln-fuer-Kinder (Cycling-for-Kids)  06/21/2019 22:54 48.5  19.66  19.2 
 17 T416 - Team Rotary Raams Polio  06/21/2019 22:59 48.5  15.4  19.2 
 18 416 - Leah Goldstein  06/21/2019 23:07 48.5  12.18  11.78 
 19 623 - Ultra Paka Racing Team (Daniel Polman)  06/22/2019 1:20 48.5  12.23  11.68 
 20 T808 - Antonia's Friends 2019  06/22/2019 2:26 48.5  17.22  18.8 
 21 622 - Thomas Odom-Team Kyle Pease Foundation  06/22/2019 2:29 48.5  11.73  11.63 
 22 T400 - Cantastic4  06/22/2019 3:25 48.5  14.48  18.62 
 23 329 - Peter Oyler  06/22/2019 5:56 48.5  9.12  11.49 
 24 T406 - Operation Walk Midwest  06/22/2019 6:06 48.5  15.65  18.32 
 25 T418 - The Opportunists  06/22/2019 8:01 48.5  16.35  18.13 
 26 611 - Marcelo Soares " MIXIRICA "  06/22/2019 8:46 48.5  11.46  11.35 
 27 615 - Philipp Amhof  06/22/2019 9:01 48.5  13.53  11.33 
 28 603 - Alan Bradley  06/22/2019 12:46 48.5  11.69  11.18 
 29 T410 - Soap-Aid  06/22/2019 13:53 48.5  17.43  17.47 
 30 529 - Isa Pulver  06/22/2019 14:57 48.5  10.98  11.07 
 31 T412 - Team Aspect  06/22/2019 17:25 48.5  17.74  17.11 
 32 T414 - Brazil Nuts  06/22/2019 17:27 48.5  18.54  17.11 
 33 442 - Joe Barr  06/22/2019 17:53 48.5  12.6  10.97 
 34 T803 - Team EndoPark  06/22/2019 18:26 48.5  15.4  17.03 
 35 411 - Geoff Brunner  06/22/2019 19:48 48.5  11.02  10.89 
 36 612 - Markus K. Brandl  06/22/2019 19:51 48.5  10.07  10.88 
 37 T405 - High Rollers  06/22/2019 21:27 48.5  16.72  16.71 
 38 559 - Team Martin RAAM 2019 (Martin Bergmeister)  06/22/2019 21:30 48.5  11.32  10.82 
 39 T202 - Integra Medical - BAA Racing  06/22/2019 21:34 48.5  15.9  16.67 
 40 T415 - TEAM FIRE VELO 935  06/22/2019 22:12 48.5  13.6  16.65 
 41 T204 - Lucan CRC  06/23/2019 0:48 48.5  15.73  16.37 
 42 T413 - TEAM BRASIL - SKIPPER  06/23/2019 1:28 48.5  16.34 
 43 T200 - AIR RELAX GoPro TEAM BRASIL  06/23/2019 1:32 48.5  14.13  16.3 
 44 510 - John C. Tarlton  06/23/2019 1:42 48.5  5.45  10.65 
 45 T402 - EA/WFP RAAM Team  06/23/2019 3:25 48.5  14.26  16.15 
 46 T206 - Project Linear Acceleration  06/23/2019 3:30 48.5  12.54  16.13 
 47 610 - Kabir Rachure  06/23/2019 4:11 48.5  10.86  10.55 
 48 618 - GREGORY ROBINSON  06/23/2019 5:05 48.5  7.31  10.51 
 49 T801 - Mind Over Matter  06/23/2019 7:09 48.5  14.55  15.85 
 50 568 - Alexandra Meixner  06/23/2019 8:33 48.5  12.6  10.38 
 51 T417 - Team4RAAM 2019 powered by TGW Living Logistics  06/23/2019 8:55 48.5  13.86  15.69 
 52 T806 - Team SuperMarrow  06/23/2019 9:03 48.5  13.6  15.69 
 53 T403 - EKJ Denmark  06/23/2019 12:30 48.5  12.07  15.37 
 54 399 - Valerio Zamboni  06/23/2019 15:58 48.5  11.28  10.13 
 55 604 - Chieko Ozawa  06/23/2019 17:21 48.5  9.01  10.06 
 56 424 - Team i RON man Veterans supporting Veterans  06/23/2019 21:05 48.5  10.98  9.95 
 57 161 - Seana Hogan  06/24/2019 8:39 48.5  9.3  9.56 
 58 T210 - Bike Wine Team  06/24/2019 11:52 48.5  13.05  13.68